Regional Weather Roundup
Issued by NWS

Home | Current Version | Previous Version | Text Only | Print | Product List | Glossary Off
Versions: 1 2 3 4 5 6 7 8 9 10 11 12 13 14 15 16 17 18 19 20 21 22 23 24 25 26 27 28 29 30 31 32 33 34 35 36 37 38 39 40 41 42 43 44 45 46 47 48 49 50

000
ASUS45 KPSR 301100
RWRAZ

PRELIMINARY ARIZONA REGIONAL HOURLY WEATHER ROUNDUP
NATIONAL WEATHER SERVICE PHOENIX AZ
400 AM MST SAT AUG 30 2014

NOTE: FAIR INDICATES FEW OR NO CLOUDS BELOW 12,000 FEET WITH NO
SIGNIFICANT WEATHER AND/OR OBSTRUCTIONS TO VISIBILITY.

AZZ001>003-036-301200-
NORTHWEST ARIZONA

CITY           SKY/WX    TMP DP  RH WIND       PRES   REMARKS
KINGMAN        CLEAR     74  32  21 S5        29.94S
$$

AZZ004>008-015-016-018-301200-
NORTH CENTRAL ARIZONA

CITY           SKY/WX    TMP DP  RH WIND       PRES   REMARKS
GRAND CANYON     N/A    N/A N/A N/A MISG        N/A
WILLIAMS       CLEAR     50  41  71 SE9       30.28S
PRESCOTT       CLEAR     59  42  53 S8        30.10S
FLAGSTAFF      CLEAR     45  39  79 CALM      30.26S
PAYSON         CLEAR     64  36  34 CALM      30.13S
PAGE           MOCLDY    73  33  23 SW3       30.02S
$$

AZZ009>014-017-301200-
NORTHEAST ARIZONA

CITY           SKY/WX    TMP DP  RH WIND       PRES   REMARKS
WINSLOW        NOT AVBL
SAINT JOHNS    CLEAR     58  45  62 S6        30.16S
$$

AZZ023-301200-
GREATER PHOENIX AREA

CITY           SKY/WX    TMP DP  RH WIND       PRES   REMARKS
PHOENIX        CLEAR     86  48  26 E7        29.76S
DEER VALLEY    CLEAR     82  46  28 CALM      29.79S
SCOTTSDALE     CLEAR     80  52  37 CALM      29.81R
MESA-GATEWAY   CLEAR     81  41  24 SE10      29.81R
$$

AZZ027-028-301200-
SOUTHWEST MARICOPA COUNTY AND PINAL COUNTY

CITY           SKY/WX    TMP DP  RH WIND       PRES   REMARKS
CASA GRANDE    CLEAR     77  43  29 CALM      29.81S
$$

AZZ503-504-507>509-301200-
SOUTHEAST ARIZONA

CITY           SKY/WX    TMP DP  RH WIND       PRES   REMARKS
TUCSON         CLEAR     78  45  30 SE10      29.93S
DAVIS-MONTHAN  CLEAR     74  45  35 SE10      29.91S
NOGALES        CLEAR     61  52  72 CALM      30.02R
SIERRA VISTA   CLEAR     65  48  54 S5        30.07S
SAFFORD        CLEAR     70  48  45 S6        29.95R
$$

AZZ020-021-025-026-031-301200-
SOUTHWEST ARIZONA

CITY           SKY/WX    TMP DP  RH WIND       PRES   REMARKS
YUMA           CLEAR     86  47  25 S3        29.68S
$$

CAZ031-033-041-043-047-048-061-301200-
SOUTHERN CALIFORNIA

CITY           SKY/WX    TMP DP  RH WIND       PRES   REMARKS
DOWNTOWN L.A.  CLEAR     67  62  84 CALM      29.81S
L.A. AIRPORT   MOCLDY    68  64  87 W3        29.81S
SAN DIEGO      MOCLDY    68  63  84 CALM      29.83R
BURBANK        CLEAR     67  59  75 CALM      29.82S
ONTARIO        CLEAR     68  58  70 CALM      29.82S
RIVERSIDE      CLEAR     68  57  68 CALM      29.82F
PALM SPRINGS   CLEAR     89  43  20 N9        29.72S
EL CENTRO NAS  CLEAR     81  43  26 W7        29.66S
IMPERIAL       CLEAR     83  47  28 W5        29.66S
BLYTHE         CLEAR     82  42  24 NW6       29.69S
$$

NVZ020-UTZ003-301200-
SOUTHERN NEVADA-UTAH

CITY           SKY/WX    TMP DP  RH WIND       PRES   REMARKS
LAS VEGAS      NOT AVBL
SALT LAKE CITY MOCLDY    71  45  39 SE8       29.90S
$$

NMZ009-TXZ055-301200-
NEW MEXICO-WEST TEXAS

CITY           SKY/WX    TMP DP  RH WIND       PRES   REMARKS
ALBUQUERQUE    CLEAR     64  41  42 N8        30.15S
EL PASO        CLOUDY    76  50  40 N7        30.04R
$$


........................KEY........................
SKY/WX - SKY CONDITION/WEATHER
TMP    - TEMPERATURE IN FAHRENHEIT
DP     - DEW POINT IN FAHRENHEIT
RH     - RELATIVE HUMIDITY IN PERCENT
WIND   - DIRECTION AND SPEED IN MILES PER HOUR (MPH)
VRB    - VARIABLE WIND DIRECTION
PRES   - MEAN SEA LEVEL PRESSURE IN INCHES OF MERCURY
         F - FALLING PRESSURE   R - RISING PRESSURE
         S - STEADY PRESSURE
VSB    - VISIBILITY IN MILES
HX     - HEAT INDEX IN FAHRENHEIT
WCI    - WIND CHILL INDEX IN FAHRENHEIT
TC     - TEMPERATURE IN CELSIUS WHICH IS ALSO KNOWN AS
         TEMPERATURE IN CENTIGRADE
AFB    - AIR FORCE BASE
         LUKE AFB IS LUKE AIR FORCE BASE
         DAVIS-MONTHAN IS DAVIS-MONTHAN AIR FORCE BASE
NAS    - NAVAL AIR STATION
         EL CENTRO NAS IS EL CENTRO NAVAL AIR STATION
N/A    - NOT AVAILABLE


USA.gov is the U.S. government's official web portal to all federal, state and local government web resources and services.